Regional Weather Roundup
Issued by NWS

Home | Current Version | Previous Version | Graphics & Text | Print | Product List | Glossary On
Versions: 1 2 3 4 5 6 7 8 9 10 11 12 13 14 15 16 17 18 19 20 21 22 23 24 25 26 27 28 29 30 31 32 33 34 35 36 37 38 39 40 41 42 43 44 45 46 47 48 49 50
000
ASUS43 KDMX 110101
RWRIA

WEATHER ROUNDUP FOR IOWA
NATIONAL WEATHER SERVICE DES MOINES IA
700 PM CST SUN DEC 10 2017

NOTE: "FAIR" INDICATES FEW OR NO CLOUDS BELOW 12,000 FEET WITH NO
SIGNIFICANT WEATHER AND/OR OBSTRUCTIONS TO VISIBILITY.

* - THESE STATIONS ARE NOT NWS STATIONS...THUS NOT UNDER NWS
QUALITY CONTROL.  THEY ALSO DO NOT REPORT WEATHER SUCH
AS PRECIPITATION OR FOG.

IAZ001>003-012>014-020>022-031>034-043>046-110200-
   NORTHWEST IOWA

CITY           SKY/WX    TMP DP  RH WIND       PRES   REMARKS
CARROLL *      CLOUDY    36  25  64 W6        30.08S WCI  31
CHEROKEE *     CLOUDY    34  26  74 CALM      30.08S
DENISON *      CLEAR     37  25  60 CALM      30.10F
LE MARS *      CLOUDY    32  25  74 SW3       30.08S
ORANGE CITY *  CLOUDY    34  28  80 CALM      30.06F
SHELDON *      CLOUDY    32  27  80 W6        30.05S WCI  26
SIOUX CITY     CLOUDY    34  24  67 CALM      30.09F
SPENCER        CLEAR     29  25  85 W6        30.06F WCI  23
STORM LAKE *   CLEAR     32  25  74 W9        30.07S WCI  24
$$

IAZ055>058-069>071-079>083-090>094-110200-
   SOUTHWEST IOWA

CITY           SKY/WX    TMP DP  RH WIND       PRES   REMARKS
ATLANTIC *     CLEAR     32  23  69 S3        30.10S
AUDUBON *      CLEAR     39  27  60 W3        30.09F
CLARINDA *     CLEAR     28  21  74 CALM        N/A
COUNCIL BLFS * CLEAR     46  25  42 W5        30.10F
CRESTON *      CLEAR     37  25  60 W9        30.10F WCI  31
HARLAN  *      CLEAR     30  21  69 CALM      30.13S
LAMONI         CLEAR     37  23  56 W8        30.09S WCI  31
RED OAK *      CLEAR     30  21  69 CALM      30.11F
SHENANDOAH *   CLEAR     36  23  60 E5        30.12F WCI  32
$$

IAZ047>049-059>061-072>074-084-110200-
   CENTRAL IOWA

CITY           SKY/WX    TMP DP  RH WIND       PRES   REMARKS
AMES           CLOUDY    33  24  69 W5        30.08S WCI  29
ANKENY *       PTCLDY    37  25  60 NW3       30.10S
BOONE *        MOCLDY    37  25  60 W5        30.08R WCI  34
CHARITON *     PTCLDY    39  25  56 NW6       30.09R WCI  35
DES MOINES     PTCLDY    40  25  55 NW3       30.09S
GRINNELL*      CLOUDY    32  23  68 CALM      30.09R
KNOXVILLE *    PTCLDY    37  23  56 W6        30.07S WCI  33
MARSHALLTOWN   CLOUDY    29  20  69 W5        30.07S WCI  24
NEWTON *       CLOUDY    37  25  60 NW5       30.09R WCI  34
PELLA *        CLEAR     36  24  63 NW3       30.10R
$$

IAZ004>006-015-016-023>025-035-036-110200-
   NORTH CENTRAL IOWA

CITY           SKY/WX    TMP DP  RH WIND       PRES   REMARKS
ALGONA *       CLOUDY    34  25  69 CALM      30.06S
CLARION *      CLOUDY    32  23  69 CALM      30.07F
ESTHERVILLE    CLOUDY    31  27  85 NW5       30.05F WCI  26
FORT DODGE *   CLOUDY    32  23  69 SW3       30.08S
MASON CITY     CLOUDY    28  21  75 W3        30.07S
FOREST CITY *  CLOUDY    32  27  80 W3        30.06S
WEBSTER CITY * CLOUDY    36  23  60 NW7       30.06S WCI  30
IOWA FALLS *   CLOUDY    29  21  72 NW5       30.08S WCI  24
$$

IAZ007>011-017>019-026>030-037>042-050>054-066-110200-
   NORTHEAST IOWA

CITY           SKY/WX    TMP DP  RH WIND       PRES   REMARKS
CEDAR RAPIDS   CLEAR     27  21  78 CALM      30.07R
CHARLES CITY * CLOUDY    27  23  86 N6        30.07S WCI  20
CLINTON *      CLEAR     26  21  81 N6        30.09R WCI  19
DECORAH *      CLOUDY    27  21  80 CALM      30.05R
DUBUQUE        CLEAR     24  19  81 CALM      30.06R
MONTICELLO *   PTCLDY    27  21  80 NW3       30.07S
OELWEIN *      CLOUDY    27  23  86 N6        30.07S WCI  20
WATERLOO       MOCLDY    26  19  74 NW3       30.08R
$$

IAZ064-065-067-068-078-110200-
   EAST CENTRAL IOWA

CITY           SKY/WX    TMP DP  RH WIND       PRES   REMARKS
DAVENPORT      CLEAR     28  20  71 NW5       30.10S WCI  23
IOWA CITY      CLEAR     27  20  75 CALM      30.10R
MT. PLEASANT * CLEAR     30  21  69 W3        30.09S
MUSCATINE *    PTCLDY    30  21  69 CALM      30.10R
QUAD CITIES    CLEAR     32  22  66 NW7       30.08R WCI  26
$$

IAZ062-063-075>077-085>089-095>099-110200-
   SOUTHEAST IOWA

CITY           SKY/WX    TMP DP  RH WIND       PRES   REMARKS
BURLINGTON     CLEAR     32  23  69 W3        30.08S
FAIRFIELD *    CLEAR     34  21  60 W5        30.08S WCI  30
FORT MADISON * CLEAR     34  23  64 W3        30.09F
KEOKUK *       CLEAR     36  25  64 CALM      30.09S
OSKALOOSA *    CLOUDY    35  23  63 NW3       30.09S
OTTUMWA        MOCLDY    33  23  66 W5        30.08S WCI  29
WASHINGTON *   PTCLDY    30  23  74 NW3       30.09R
$$

ABBREVIATIONS USED IN REMARKS
   TC - TEMPERATURES IN CELSIUS
  WCI - WIND CHILL INDEX
   HX - HEAT INDEX
  VSB - VISIBILITY
$$





USA.gov is the U.S. government's official web portal to all federal, state and local government web resources and services.